Regional Weather Roundup
Issued by NWS Albany, NY

Home | Current Version | Previous Version | Text Only | Print | Product List | Glossary On
Versions: 1 2 3 4 5 6 7 8 9 10 11 12 13 14 15 16 17 18 19 20 21 22 23 24 25 26 27 28 29 30 31 32 33 34 35 36 37 38 39 40 41 42 43 44 45 46 47 48 49
000
ASUS41 KALY 261410
RWRALY

NEW YORK STATE HOURLY WEATHER ROUNDUP
NATIONAL WEATHER SERVICE ALBANY NY
900 AM EST MON JAN 26 2015

NOTE: "FAIR" INDICATES FEW OR NO CLOUDS BELOW 12,000 FEET WITH NO
SIGNIFICANT WEATHER AND/OR NO OBSTRUCTIONS TO VISIBILITY.

NYZ032-033-038>043-046>054-057>066-NYZ062>081-261500-
EAST


CITY           SKY/WX    TMP DP  RH WIND       PRES   REMARKS
ALBANY         CLOUDY    10  -3  55 N10       30.12S WCI  -4
GLENS FALLS    CLOUDY     7  -2  66 N10       30.13S WCI  -8
POUGHKEEPSIE   CLOUDY    16   3  56 N12       30.05F WCI   3
NEWBURGH       CLOUDY    14   7  73 NE12      30.03S WCI   0
MONTGOMERY     CLOUDY    15   4  61 NE13      30.01F WCI   1
WHITE PLAINS   FLURRIES  21   6  52 E12G17    29.99S WCI   9
ISLIP          LGT SNOW  24  18  77 NE15      29.99F VSB 1   WCI  11
NEW YORK CITY  LGT SNOW  25  18  74 NE21      30.01S VSB 1   WCI  11
CENTRAL PARK   LGT SNOW  24  16  71 E13G18    30.02S VSB 3/4 WCI  12
$$

NYZ005>009-017-018-044>046-055-056-261500-
CENTRAL


CITY           SKY/WX    TMP DP  RH WIND       PRES   REMARKS
FULTON         CLOUDY     7  -5  57 E6        30.03S WCI  -3
SYRACUSE       CLOUDY     8   0  69 NE6       30.02S WCI  -2
ROME           CLOUDY     8  -3  61 E7        30.07R WCI  -3
ELMIRA         LGT SNOW  14   8  77 E9        29.92S WCI   2
BINGHAMTON     LGT SNOW   7   4  87 E10       29.86S VSB 1   WCI  -8
MONTICELLO     CLOUDY    12   3  67 E15G23    29.92R WCI  -4
$$

NYZ026>034-041>043-261500-
NORTH


CITY           SKY/WX    TMP DP  RH WIND       PRES   REMARKS
WATERTOWN      FAIR      -1 -10  65 NE13      30.09S WCI -19
FORT DRUM      NOT AVBL
MASSENA        SUNNY     -9 -14  78 CALM      30.19S
SARANAC LAKE   PTSUNNY  -11 -16  78 NE7       29.97S WCI -26
PLATTSBURGH    MOSUNNY    1  -6  72 NW5       30.19F WCI  -9
$$

NYZ001>004-010>016-019>021-261500-
WEST


CITY           SKY/WX    TMP DP  RH WIND       PRES   REMARKS
NIAGARA FALLS  CLOUDY    14  -1  51 E15G22    29.96R WCI  -1
BUFFALO        FLURRIES  14  -2  49 E10       29.94S WCI   1
DUNKIRK        LGT SNOW  14   9  80 NE14      29.89F WCI  -1
JAMESTOWN      CLOUDY    12   9  85 E8        29.77S WCI   1
WELLSVILLE     LGT SNOW  10   6  84 E6        29.79S FOG     WCI   0
ROCHESTER      CLOUDY    12  -3  51 E12       29.99F WCI  -2
PENN YAN       LGT SNOW  11   6  81 NE7       29.94S VSB 1   WCI   0
$$

             KEY
       WCI = WIND CHILL INDEX
       VSB = VISIBILITY
       HX  = HEAT INDEX
$$


USA.gov is the U.S. government's official web portal to all federal, state and local government web resources and services.